Wetbulb
37.12 30.72 27.48 31.49 33.57 35.70 35.05 33.75 32.46 34.86 39.37 36.60 36.09 37.73 40.31 42.80 43.78 43.06 43.19 44.69 45.32 46.10 56.93 65.80 67.61 68.24 67.80 68.20 68.00 68.05 67.57 67.03 67.54 67.32 65.88 66.08 66.31 67.18 68.28 68.87 69.64 69.54 69.73 70.00
35.73 30.81 34.88 36.35 35.80 34.49 34.58 32.71 31.27 34.82 38.75 37.62 37.73 37.70 40.40 41.54 43.83 44.15 44.46 44.28 44.74 45.23 59.70 65.47 65.44 66.33 66.60 66.90 67.76 67.59 67.45 65.93 67.80 68.52 68.53 67.99 68.20 69.10 69.56 69.74 70.30 70.63 69.86 70.35
34.13 35.46 38.76 35.41 33.68 32.58 32.60 31.34 31.99 32.12 36.66 38.61 36.78 35.95 38.79 41.44 43.36 44.73 45.83 45.96 45.49 46.19 58.27 63.79 65.00 65.06 66.08 66.52 66.59 66.78 66.38 65.51 66.02 67.48 69.01 68.71 69.35 69.51 69.62 70.18 70.95 71.26 70.66 70.89
34.50 38.90 37.23 34.99 32.95 33.56 28.50 35.64 36.02 35.33 32.54 27.10 37.28 26.70 34.40 39.22 40.77 43.07 44.90 43.99 45.03 45.36 56.27 63.03 65.18 64.55 65.24 65.93 66.51 66.41 66.02 64.84 64.99 67.00 68.26 67.90 67.16 66.91 67.36 68.62 69.17 69.14 69.68 70.00
35.36 36.02 34.43 33.48 34.51 36.56 31.48 36.69 35.60 34.85 33.81 31.17 32.60 28.51 32.44 37.39 37.87 41.11 43.84 45.20 44.07 44.73 53.65 61.88 63.81 65.24 65.80 66.06 65.75 65.47 64.81 63.49 64.01 65.81 67.70 66.48 66.64 67.27 67.70 67.86 63.62 63.70 68.08 68.44
37.42 42.00 38.57 35.77 38.24 38.33 38.76 34.72 34.15 32.45 32.81 26.08 30.26 30.40 29.31 33.48 39.07 42.69 43.92 45.05 45.00 44.31 47.41 60.90 63.62 65.00 65.17 65.36 64.32 63.75 62.40 62.05 64.30 65.35 66.38 67.05 67.00 66.25 66.54 64.39 61.62 61.55 62.14 65.60
34.40 36.89 39.83 40.02 33.85 37.13 35.41 29.02 19.92 22.36 23.13 23.53 31.96 30.31 32.54 38.15 40.63 41.89 42.87 43.53 45.29 45.13 45.55 55.03 60.76 62.67 63.24 62.39 61.82 62.07 62.31 62.40 64.23 65.39 65.61 65.91 65.82 65.23 65.48 62.92 62.56 62.59 62.14 63.17
26.18 26.37 37.24 40.36 35.78 32.10 33.65 30.57 20.76 13.87 19.55 22.14 31.80 26.82 33.36 42.77 44.87 44.19 45.70 44.08 45.64 44.44 45.58 49.44 58.76 61.36 62.51 62.36 61.63 62.07 63.48 65.20 65.27 65.96 66.21 65.56 65.00 65.89 65.38 62.85 63.54 64.42 63.37 62.47
28.10 25.58 39.38 40.06 40.80 37.53 32.81 30.69 33.84 25.28 27.10 22.58 26.76 33.19 38.41 40.63 42.12 43.31 43.61 43.25 44.27 45.41 44.94 49.81 57.45 60.00 61.58 61.88 61.27 63.19 65.34 65.27 65.28 64.13 64.49 66.82 66.05 64.60 64.63 64.05 64.26 62.38 59.50 56.98
34.38 28.85 36.72 38.88 40.75 39.88 34.97 37.67 29.33 30.81 18.29 20.71 25.43 29.55 31.11 36.09 39.36 42.07 43.94 42.64 43.47 43.42 44.21 58.98 61.28 63.17 64.07 64.69 65.67 66.56 65.53 62.29 60.86 60.34 60.54 60.39 60.75 61.18 59.84 57.95 55.36 54.45 54.83 54.26
37.40 34.17 30.50 35.90 36.37 34.32 33.60 31.93 31.58 31.70 26.59 22.15 22.39 27.22 36.62 37.67 40.00 40.45 42.29 46.85 41.83 41.55 53.32 60.56 63.33 64.01 65.33 65.27 63.71 61.59 60.06 58.96 58.03 58.10 58.11 56.59 56.43 55.79 54.37 53.14 53.05 53.60 52.85 52.75
37.83 34.12 27.39 28.91 37.04 39.96 38.28 33.88 32.95 26.32 24.58 27.56 25.60 25.50 43.06 44.52 46.35 46.43 48.49 50.83 41.41 52.13 59.95 60.54 61.44 63.40 61.58 60.04 58.87 57.69 57.15 56.61 56.04 55.61 54.09 52.92 52.58 52.26 51.69 51.22 51.18 50.48 49.81 49.23
37.32 32.95 23.63 26.01 33.94 37.45 34.55 36.11 34.50 33.46 34.47 27.66 25.44 27.75 47.70 49.48 49.29 51.17 49.86 46.92 53.37 59.39 60.34 61.36 61.61 59.17 57.23 56.33 55.70 55.62 54.98 53.08 51.91 51.83 51.50 51.58 51.35 50.88 50.02 49.57 49.01 48.47 47.44 46.86
40.91 33.19 29.83 25.18 31.01 33.84 33.25 34.83 34.96 34.41 29.64 30.39 31.48 36.49 45.06 49.26 51.22 51.75 51.79 55.72 58.72 59.51 60.08 58.51 56.83 55.77 55.43 54.88 54.31 53.12 52.37 52.89 51.98 50.84 49.67 48.82 49.00 49.50 48.89 48.64 47.98 47.27 46.74 45.54
37.73 30.81 34.14 33.55 34.40 34.88 33.28 33.43 34.39 33.52 33.20 31.22 34.47 38.48 43.20 47.49 50.43 54.66 55.98 57.51 57.90 56.89 56.55 55.41 54.41 53.63 53.45 52.78 52.19 52.31 51.60 51.21 50.71 49.14 47.99 47.21 47.56 47.77 48.03 47.85 47.51 46.98 46.08 45.04
34.08 31.11 34.46 31.45 34.43 34.51 32.20 33.52 33.60 35.07 35.34 37.13 38.97 39.30 45.11 49.52 52.78 55.08 55.11 54.88 53.75 53.77 53.46 53.19 52.86 52.94 51.74 50.84 50.42 49.96 49.43 49.04 49.02 47.16 46.09 46.43 45.91 45.57 45.30 45.22 45.81 45.50 44.49 43.86
31.76 31.56 30.07 27.74 36.10 33.31 29.46 32.77 33.94 36.71 38.07 39.71 34.59 42.14 46.16 46.95 51.05 50.52 50.92 51.50 51.02 51.26 51.49 51.48 51.00 50.15 50.62 50.35 49.46 48.30 48.22 48.20 46.92 46.05 45.62 45.55 45.55 44.76 44.45 45.02 45.32 44.60 43.57 43.27
31.94 31.56 32.09 29.31 32.59 25.02 36.02 39.41 39.02 38.74 41.40 43.21 43.79 44.16 44.46 45.36 46.73 48.65 49.96 48.99 48.99 49.11 48.64 48.62 48.61 48.35 49.31 48.80 48.27 47.19 46.70 46.13 45.07 44.36 44.37 44.71 43.98 43.06 42.92 42.86 42.61 42.62 42.42 41.43
37.72 33.02 30.60 29.33 30.60 34.00 36.72 39.98 38.61 37.78 39.05 44.65 43.97 43.24 43.72 44.46 44.75 42.61 46.66 47.22 46.84 46.42 46.98 46.98 48.05 48.14 46.70 46.64 47.28 45.31 44.33 43.85 43.48 42.84 42.76 42.77 42.65 41.67 41.02 40.12 39.83 40.04 40.87 41.43
38.18 36.99 32.96 34.64 26.76 26.49 37.30 42.73 44.97 43.52 36.11 45.11 43.63 42.72 43.78 44.97 39.17 40.90 44.99 46.19 46.38 47.09 47.09 47.50 47.25 47.80 45.60 45.45 45.62 43.29 41.84 41.32 40.40 40.06 39.91 39.95 39.53 39.05 37.86 37.87 37.41 37.83 38.61 38.81
31.20 30.57 30.67 32.08 31.86 34.99 40.50 40.92 45.87 31.51 32.78 45.08 44.34 44.27 45.55 42.43 43.96 44.96 45.75 45.52 46.99 46.26 46.47 47.05 46.74 44.91 43.70 43.82 42.91 40.36 39.64 38.24 39.07 39.26 38.60 37.98 37.20 36.36 36.15 35.83 36.01 36.29 36.32 36.28
29.70 27.61 26.95 31.17 29.94 28.30 39.25 43.43 39.47 42.33 43.43 45.15 44.35 42.82 42.92 43.69 44.90 45.14 44.73 44.50 44.68 43.92 43.77 44.81 43.02 41.91 42.57 42.59 40.95 38.61 37.09 37.86 37.67 37.20 36.23 35.15 34.96 36.28 35.12 34.66 34.46 34.22 34.53 34.50
28.25 31.35 28.05 31.18 29.89 35.23 41.34 42.73 43.70 43.69 42.64 42.78 42.97 44.14 44.25 43.52 42.31 43.37 43.56 43.56 44.03 42.73 42.76 43.15 41.94 41.16 41.13 40.74 40.00 37.34 37.18 37.67 36.78 35.72 34.66 33.92 33.75 33.44 33.07 32.72 32.66 32.45 32.81 32.27
34.29 35.22 33.36 34.58 35.82 36.90 40.27 43.21 43.25 43.18 42.48 43.30 44.16 43.84 43.55 41.66 41.90 41.32 41.88 41.77 41.33 41.70 41.61 42.26 41.80 40.26 38.99 39.34 38.97 37.96 37.68 37.38 35.90 34.08 33.27 32.94 32.68 32.67 33.27 33.29 33.00 32.83 32.32 32.26
32.62 32.74 32.17 34.61 36.20 38.29 39.36 41.45 42.00 41.84 41.80 41.32 42.13 42.31 42.13 42.02 41.27 41.60 41.03 41.02 41.18 41.18 41.50 41.96 41.04 40.07 39.46 39.68 38.69 38.43 37.77 36.48 34.28 33.27 32.96 32.53 32.37 32.61 32.60 32.70 33.27 33.13 33.86 33.77
32.25 30.81 30.97 29.90 36.68 37.43 38.65 41.49 42.27 41.03 40.66 40.23 40.34 40.07 40.85 41.17 40.50 40.60 40.29 40.84 40.59 40.35 40.68 40.59 40.48 39.96 39.92 39.64 38.89 38.51 37.84 36.51 34.79 33.30 33.16 32.95 32.45 32.62 32.86 33.34 34.06 36.31 36.26 36.33
MSLP
1008.32 1008.87 1008.77 1008.78 1008.62 1008.20 1008.31 1008.16 1007.67 1006.74 1005.64 1005.53 1004.53 1003.93 1003.24 1002.66 1002.12 1001.98 1001.82 1001.84 1001.55 1001.01 1001.37 1001.15 1001.51 1001.51 1003.12 1003.28 1004.12 1005.05 1005.84 1006.20 1007.33 1008.11 1008.68 1009.06 1009.29 1009.59 1009.64 1009.79 1010.05 1010.46 1010.84 1011.41
1008.41 1007.68 1007.50 1007.59 1007.58 1007.72 1007.74 1007.45 1007.17 1006.81 1006.05 1005.51 1004.46 1003.82 1002.85 1002.19 1001.53 1001.17 1001.36 1001.40 1001.57 1001.01 1001.49 1001.38 1001.83 1002.78 1002.45 1002.35 1003.56 1004.84 1005.52 1006.04 1006.69 1007.45 1008.07 1008.71 1009.36 1009.48 1009.41 1009.59 1009.83 1009.89 1010.59 1011.13
1007.82 1006.84 1006.55 1006.83 1006.81 1006.97 1006.82 1006.76 1006.82 1006.80 1006.43 1005.44 1005.10 1003.21 1002.30 1001.57 1001.18 1000.74 1000.75 1000.74 1001.21 1000.80 1001.02 1001.66 1001.77 1001.75 1002.01 1002.70 1003.55 1004.24 1005.07 1005.91 1006.75 1007.37 1008.07 1008.70 1009.18 1009.64 1009.77 1010.18 1010.60 1010.84 1011.30 1011.40
1006.90 1005.84 1005.80 1005.91 1005.98 1006.42 1006.32 1006.20 1006.37 1006.49 1006.63 1006.17 1005.14 1003.67 1001.85 1001.10 1000.85 1000.47 1000.37 1000.76 1000.68 1000.98 1001.12 1001.25 1001.87 1002.23 1002.40 1002.68 1003.34 1004.27 1005.20 1005.95 1006.61 1007.22 1007.97 1008.52 1009.22 1009.83 1010.48 1010.81 1011.20 1011.53 1011.57 1011.74
1006.60 1005.98 1005.59 1005.50 1005.24 1005.58 1005.28 1005.97 1006.38 1006.52 1006.29 1006.35 1005.59 1005.20 1001.88 1000.76 1000.59 999.87 999.71 999.85 1000.17 1000.76 1000.96 1001.28 1001.64 1001.77 1001.91 1002.75 1003.41 1004.35 1005.28 1006.06 1006.70 1007.41 1008.03 1008.80 1009.67 1010.34 1010.78 1011.27 1012.13 1012.71 1012.35 1012.18
1005.96 1005.61 1005.55 1004.88 1004.66 1005.06 1005.54 1005.98 1006.45 1006.63 1006.66 1006.63 1005.57 1005.01 1002.32 1000.51 999.32 998.75 998.85 999.41 999.82 1000.53 1001.01 1001.03 1001.04 1001.50 1002.30 1003.11 1003.89 1004.55 1005.49 1006.39 1006.96 1007.61 1008.24 1009.00 1009.71 1010.42 1010.90 1011.83 1012.15 1012.86 1013.07 1012.94
1005.90 1005.05 1004.65 1004.44 1004.72 1005.04 1005.86 1006.40 1007.08 1007.15 1006.68 1006.03 1005.00 1004.59 1001.74 999.84 998.89 998.48 998.70 999.07 999.28 1000.16 1000.77 1001.16 1001.51 1001.94 1002.67 1003.37 1003.98 1004.75 1005.70 1006.74 1007.36 1008.01 1008.72 1009.35 1009.92 1010.39 1011.26 1012.01 1012.39 1012.84 1013.08 1013.59
1006.68 1005.07 1004.37 1003.80 1004.14 1004.44 1004.98 1005.79 1006.13 1006.28 1006.17 1005.52 1004.54 1002.92 999.71 998.60 998.11 998.50 998.57 998.57 998.43 999.46 999.98 1000.45 1000.91 1001.50 1002.29 1003.10 1004.02 1005.00 1005.89 1006.85 1007.43 1008.10 1008.67 1009.67 1010.28 1011.10 1011.93 1012.61 1012.67 1013.03 1013.28 1013.56
1007.17 1005.72 1004.47 1004.08 1003.91 1004.01 1004.51 1005.13 1005.24 1005.59 1005.08 1004.85 1003.81 1001.61 999.55 998.59 998.40 998.30 998.33 998.47 998.30 998.47 999.69 1000.02 1000.76 1001.32 1002.03 1003.07 1004.17 1005.01 1005.96 1006.80 1007.39 1008.24 1008.85 1009.52 1010.27 1010.75 1011.44 1012.61 1013.30 1012.91 1014.08 1014.86
1007.42 1006.19 1004.52 1004.05 1004.31 1003.61 1003.67 1004.16 1005.28 1005.42 1005.22 1004.28 1002.88 1000.75 999.34 998.04 997.81 998.08 998.27 998.46 998.20 998.41 999.48 1000.04 1000.64 1001.49 1002.33 1003.25 1004.30 1005.37 1006.44 1007.12 1007.79 1008.32 1009.47 1010.02 1010.45 1011.36 1011.85 1012.12 1012.86 1013.74 1015.56 1015.93
1007.38 1006.75 1005.04 1004.35 1003.62 1003.15 1003.34 1003.57 1004.04 1004.54 1004.71 1003.46 1002.24 999.95 998.46 998.17 997.97 997.91 998.09 998.25 998.26 998.60 999.32 1000.03 1000.98 1001.98 1002.87 1003.67 1004.78 1005.97 1006.95 1007.66 1008.49 1009.25 1010.17 1010.46 1011.38 1012.34 1012.82 1013.37 1014.10 1015.20 1016.05 1016.59
1007.14 1006.61 1005.58 1004.21 1002.93 1002.66 1002.75 1002.96 1003.56 1003.95 1004.34 1003.31 1002.00 999.63 998.48 998.19 998.01 998.03 997.99 998.03 998.08 998.50 999.26 1000.36 1001.34 1002.28 1003.36 1004.42 1005.58 1006.76 1007.75 1008.48 1009.50 1010.00 1010.39 1011.44 1012.10 1012.93 1013.62 1014.43 1015.31 1016.26 1016.80 1017.30
1007.10 1006.30 1005.51 1003.88 1003.40 1002.91 1002.94 1002.77 1003.06 1003.10 1003.40 1002.96 1002.31 1000.28 998.45 998.04 998.02 997.92 997.93 997.85 998.09 998.63 999.63 1000.72 1001.88 1003.04 1004.11 1005.33 1006.38 1007.66 1008.82 1009.84 1010.52 1010.89 1011.60 1012.40 1013.05 1013.97 1014.92 1015.62 1016.41 1016.91 1017.06 1017.38
1006.63 1005.62 1005.24 1004.14 1003.34 1003.41 1002.92 1002.31 1002.67 1002.77 1003.26 1002.46 1001.82 1000.35 999.13 998.52 998.27 998.11 998.01 997.73 998.06 998.79 999.98 1001.57 1002.99 1004.15 1005.33 1006.39 1007.34 1008.71 1009.74 1010.60 1011.15 1011.90 1012.69 1013.48 1014.40 1015.13 1015.77 1016.56 1017.08 1017.28 1017.64 1018.00
1005.30 1005.01 1004.47 1003.66 1003.18 1003.03 1002.77 1002.45 1002.17 1002.24 1002.03 1002.36 1001.62 1000.75 1000.20 999.41 998.96 998.26 998.05 998.27 998.85 1000.17 1001.33 1002.30 1003.75 1005.10 1006.20 1007.23 1008.46 1009.84 1010.46 1011.29 1011.92 1012.48 1013.79 1014.84 1015.58 1016.25 1016.70 1017.22 1017.76 1018.17 1018.47 1018.83
1005.75 1005.02 1004.37 1002.97 1002.22 1002.15 1002.11 1001.76 1001.71 1001.59 1001.37 1001.45 1001.55 1001.53 1001.15 1000.02 999.22 999.01 999.11 999.42 1000.18 1001.44 1002.28 1003.55 1004.96 1006.04 1007.04 1008.19 1009.38 1010.53 1011.39 1012.24 1012.46 1013.35 1014.71 1015.68 1016.22 1016.72 1017.39 1017.96 1018.42 1018.80 1019.03 1019.21
1005.67 1005.15 1004.35 1002.62 1001.10 1001.45 1001.40 1000.40 1000.61 1000.59 1000.48 1000.70 1002.15 1002.40 1001.44 1000.77 1000.47 1000.41 1000.71 1001.10 1001.68 1002.53 1003.37 1004.89 1006.17 1007.13 1007.98 1009.03 1009.96 1011.17 1012.33 1013.05 1013.84 1014.64 1015.93 1016.65 1017.40 1017.66 1018.43 1018.75 1019.17 1019.43 1019.66 1020.05
1005.23 1004.85 1004.15 1002.59 1001.71 1000.96 999.18 998.35 999.41 999.89 1000.18 1000.75 1001.64 1002.44 1002.55 1002.63 1002.33 1002.32 1002.25 1002.58 1003.41 1004.16 1005.11 1006.43 1007.28 1008.28 1009.28 1010.02 1011.09 1012.03 1013.23 1014.17 1014.83 1015.92 1016.86 1017.57 1017.94 1018.42 1019.04 1019.42 1019.66 1020.01 1020.37 1020.54
1004.50 1004.29 1003.52 1002.56 1001.07 1000.49 999.97 999.71 999.59 999.42 1001.02 1001.27 1001.92 1003.04 1003.14 1003.83 1003.39 1004.61 1004.56 1004.41 1005.19 1005.98 1007.08 1007.96 1008.62 1009.43 1010.10 1011.04 1012.41 1013.04 1014.30 1015.26 1016.09 1017.19 1017.90 1018.40 1018.65 1019.44 1019.92 1020.25 1020.65 1020.87 1020.93 1020.97
1004.14 1003.97 1003.65 1002.30 1001.52 1001.28 1000.98 1000.41 999.90 999.69 1001.89 1002.26 1002.19 1002.57 1002.32 1004.32 1005.18 1006.53 1006.60 1005.93 1006.67 1007.59 1008.54 1009.52 1009.96 1010.70 1011.26 1012.64 1013.47 1013.81 1015.34 1016.39 1017.61 1018.30 1018.82 1019.09 1019.70 1020.27 1020.75 1021.19 1021.31 1021.49 1021.54 1021.54
1005.01 1004.66 1004.18 1003.37 1002.48 1001.82 1002.47 1002.04 1000.81 1001.15 1002.70 1002.49 1002.68 1003.55 1002.97 1004.84 1005.81 1006.86 1007.39 1007.64 1007.91 1008.76 1009.97 1011.02 1011.32 1012.08 1013.12 1013.89 1014.22 1015.46 1016.68 1017.85 1018.78 1019.11 1019.39 1020.06 1020.69 1021.23 1021.54 1021.79 1021.94 1022.09 1022.10 1022.12
1007.53 1007.00 1006.28 1005.35 1004.63 1004.59 1003.56 1002.27 1001.92 1002.96 1002.64 1002.95 1003.66 1004.20 1004.23 1005.61 1005.78 1007.65 1008.45 1008.67 1009.27 1010.34 1011.35 1012.31 1012.94 1013.75 1014.64 1015.21 1015.66 1016.95 1017.94 1019.01 1019.43 1019.82 1020.54 1021.23 1021.59 1021.90 1022.28 1022.47 1022.81 1022.82 1022.84 1022.78
1008.94 1009.24 1008.70 1007.96 1008.02 1007.07 1005.00 1003.91 1003.64 1003.81 1003.73 1004.37 1004.49 1005.68 1005.98 1007.26 1006.86 1008.67 1009.73 1010.30 1010.76 1011.63 1012.54 1013.67 1013.94 1014.92 1016.05 1016.85 1017.46 1018.02 1019.23 1019.70 1020.41 1020.91 1021.59 1022.17 1022.58 1022.95 1023.13 1023.17 1023.27 1023.36 1023.42 1023.47
1010.10 1009.77 1009.04 1008.46 1008.26 1007.30 1006.21 1005.51 1005.25 1005.29 1005.69 1006.25 1006.54 1007.03 1007.74 1008.39 1008.89 1009.24 1011.48 1011.43 1011.97 1012.97 1013.69 1014.44 1015.04 1016.19 1017.40 1018.10 1018.43 1018.99 1019.88 1020.65 1021.31 1021.85 1022.58 1023.03 1023.33 1023.79 1023.83 1023.82 1023.96 1023.99 1024.23 1024.30
1011.93 1011.08 1010.13 1009.13 1008.52 1008.21 1007.75 1007.32 1006.89 1006.85 1007.36 1007.75 1008.35 1008.62 1009.09 1009.60 1010.44 1009.92 1013.12 1013.36 1013.25 1014.22 1015.03 1015.63 1016.29 1017.33 1018.22 1018.94 1019.65 1020.33 1021.02 1021.70 1022.12 1022.73 1023.43 1023.90 1024.25 1024.34 1024.47 1024.55 1024.81 1024.86 1025.08 1025.13
1012.58 1012.16 1011.46 1010.72 1010.08 1009.51 1009.33 1008.91 1008.65 1008.18 1008.99 1009.39 1009.58 1010.07 1010.73 1011.06 1011.79 1012.08 1014.54 1014.08 1015.00 1015.54 1016.22 1016.71 1017.41 1018.40 1019.25 1019.85 1020.56 1021.32 1021.89 1022.26 1022.72 1023.63 1024.38 1024.62 1024.68 1024.93 1024.97 1025.10 1025.31 1025.31 1025.32 1025.33
Wind_Speed
4 4 8 12 14 15 12 12 9 4 9 4 8 13 11 9 6 8 9 9 7 10 2 4 7 9 12 13 12 13 14 10 9 4 4 2 3 1 2 3 5 6 6 5
3 14 11 13 14 15 14 13 9 6 10 7 8 10 10 11 13 9 9 9 8 5 5 7 7 16 16 17 16 13 13 10 10 7 4 3 3 2 2 3 5 5 6 6
11 10 8 12 11 13 14 12 8 8 7 15 11 12 8 5 8 9 10 7 7 11 9 12 9 10 11 14 14 14 13 12 8 6 5 3 4 3 2 3 3 3 4 3
10 10 18 11 14 12 15 9 8 5 5 6 2 7 6 8 8 9 10 9 9 10 5 9 12 8 10 13 12 11 11 11 8 8 6 5 3 3 3 5 5 8 8 7
7 7 5 12 15 8 11 8 8 6 6 3 5 3 7 5 8 12 14 15 9 10 12 11 12 14 14 10 11 8 8 8 8 7 6 5 6 5 6 10 14 12 5 7
16 11 6 7 9 14 2 5 7 3 3 6 9 7 5 6 13 16 7 9 11 11 9 12 14 11 9 5 6 6 8 6 7 7 7 7 9 7 8 11 11 10 6 6
5 5 4 7 4 10 8 8 2 8 7 5 9 8 13 7 6 6 10 9 10 13 13 12 12 11 7 8 8 7 10 7 8 7 6 6 9 11 15 10 9 7 4 3
3 4 7 6 11 6 13 11 6 7 7 9 5 10 14 22 15 6 1 10 12 12 15 17 18 15 14 12 8 9 11 11 10 8 6 6 9 7 9 8 8 5 3 4
4 6 1 8 6 11 5 9 8 2 3 4 5 12 8 7 7 6 7 10 12 11 14 16 16 15 14 11 9 11 12 12 10 10 9 9 12 14 12 11 5 7 8 7
2 8 2 4 3 6 7 9 6 3 3 5 7 20 11 8 13 11 5 10 10 5 11 13 14 12 10 11 12 13 12 13 13 13 10 10 11 9 12 13 11 12 9 9
4 5 4 3 6 12 7 4 4 5 4 5 5 9 6 11 2 11 10 7 8 9 12 14 16 13 13 14 15 15 15 15 14 12 11 15 13 12 13 13 12 11 10 7
4 3 5 10 4 3 6 7 6 6 6 3 2 6 3 4 5 5 7 7 6 10 16 16 19 18 17 16 16 15 15 15 14 13 15 15 14 14 14 13 13 10 11 8
2 3 4 5 2 4 3 6 5 3 4 3 1 6 3 6 5 5 6 7 11 17 17 19 18 16 17 17 17 17 15 15 13 15 15 14 14 13 13 12 11 10 11 10
18 7 8 7 3 2 5 7 7 6 4 7 6 4 8 6 3 5 6 13 17 19 20 18 17 17 17 17 17 17 16 14 16 16 15 16 13 12 12 11 10 11 10 10
4 5 8 15 13 7 6 9 5 13 7 10 6 2 7 8 4 5 11 15 19 18 18 19 20 18 19 19 17 15 16 14 15 18 16 13 13 12 11 12 11 10 10 9
2 2 3 10 15 14 10 12 8 4 5 10 3 5 5 8 3 11 12 18 19 18 19 20 20 20 20 20 18 17 17 15 16 17 15 12 12 12 12 10 10 10 9 9
2 2 2 4 3 11 7 16 11 5 6 10 9 5 8 12 8 11 14 17 18 18 20 20 19 18 19 18 18 18 17 16 17 17 13 12 11 13 10 10 10 9 9 7
3 2 2 2 4 3 3 15 15 7 7 11 14 11 14 9 15 12 16 18 18 18 19 17 16 19 18 19 19 19 16 16 16 15 13 12 12 12 10 10 9 9 7 8
7 2 2 1 2 4 8 4 6 13 8 6 15 14 19 11 18 15 12 19 18 19 16 15 16 18 19 19 17 19 17 16 15 14 12 11 12 11 9 10 8 5 6 7
5 5 3 2 3 3 6 6 10 4 5 7 13 15 19 10 6 5 6 18 20 19 17 15 17 17 18 16 16 19 16 15 13 12 12 12 11 10 10 8 8 5 6 7
7 5 7 5 3 5 12 20 11 2 4 11 8 9 18 10 5 13 13 16 20 20 18 16 16 16 16 14 17 18 16 14 11 12 13 12 11 10 9 8 6 6 7 8
6 7 5 5 6 6 22 16 3 5 5 12 8 7 17 20 20 15 15 17 20 20 19 17 16 16 14 14 16 16 15 11 11 12 12 11 10 8 7 9 7 8 7 8
4 4 4 4 3 11 14 8 10 14 14 8 12 14 18 17 24 18 14 16 17 19 17 14 17 18 14 13 12 16 12 12 12 13 12 11 10 9 8 8 8 7 8 8
4 6 3 3 4 13 15 12 14 16 16 15 14 15 16 20 20 23 14 12 17 16 16 15 17 17 15 13 14 14 12 12 12 13 11 9 10 9 9 8 7 8 7 7
3 9 8 4 7 6 16 13 13 19 20 21 19 18 17 18 18 26 10 13 16 16 14 14 16 15 16 14 14 12 11 11 12 12 10 9 7 8 8 7 6 7 5 6
6 5 4 3 8 4 10 11 12 17 16 18 20 22 21 19 19 21 10 15 15 15 14 15 16 15 14 14 13 11 10 11 12 11 7 6 6 5 5 6 6 9 10 11
Wind_Direction
202 164 203 204 213 230 238 268 283 304 300 329 247 258 251 247 235 237 234 251 224 240 134 151 169 124 159 151 155 175 169 155 154 155 153 171 193 163 174 174 166 175 155 150
248 242 227 208 214 224 228 229 243 282 288 291 293 289 256 213 215 224 225 229 208 238 148 161 156 164 167 157 174 176 175 164 174 178 150 143 146 164 164 176 197 170 164 165
233 240 234 202 211 211 219 223 222 235 276 288 292 283 232 221 206 214 220 225 180 205 177 178 172 174 169 171 178 176 173 164 165 132 120 86 86 45 68 52 67 62 137 137
256 261 220 219 224 212 235 209 226 238 219 239 155 287 250 182 206 211 207 199 205 204 192 174 178 172 181 190 183 174 165 159 151 146 141 129 138 120 52 82 66 57 54 81
259 286 237 231 231 184 242 186 203 235 209 206 246 303 267 170 200 213 208 205 196 185 178 180 183 189 193 174 179 165 134 141 140 141 125 114 91 82 89 77 60 28 22 67
252 221 252 220 238 207 145 158 182 236 196 232 221 207 269 192 201 217 210 199 180 176 187 191 191 192 187 150 130 141 114 116 126 124 128 123 103 105 94 101 89 68 4 16
293 209 245 200 217 196 201 140 200 211 201 238 183 223 248 259 261 216 180 186 194 162 179 185 186 190 170 172 159 130 126 130 126 119 134 137 98 94 102 103 107 111 93 73
317 323 177 199 207 185 185 177 173 192 168 222 192 224 235 228 249 253 166 192 186 168 178 181 187 188 184 184 162 134 141 138 135 139 143 122 119 103 104 104 117 118 114 74
311 272 202 239 281 174 211 201 209 193 190 111 178 259 297 223 222 224 232 174 199 198 162 175 183 184 179 167 142 137 137 133 115 111 103 120 130 123 127 106 130 102 86 90
270 284 300 215 253 267 168 164 189 241 195 179 181 232 228 188 208 208 213 201 206 175 142 161 168 158 143 136 129 128 126 105 101 93 97 102 95 111 104 107 96 87 88 91
257 233 279 210 191 206 178 191 170 148 178 173 171 231 204 237 163 187 199 216 200 153 146 147 144 136 121 114 117 114 106 104 97 101 107 97 102 102 100 96 94 96 96 101
237 270 264 243 250 91 239 189 189 175 240 245 261 259 252 232 209 232 222 203 146 144 137 132 138 131 115 110 106 105 102 102 102 108 98 97 97 92 92 93 100 106 101 96
34 233 300 314 86 138 239 189 186 105 102 247 188 279 307 106 143 213 217 158 138 131 127 131 124 112 110 108 107 106 106 106 102 97 97 94 88 91 90 91 97 102 94 80
273 198 224 239 135 147 270 207 181 196 137 250 281 319 14 35 118 121 137 139 136 132 128 117 109 106 107 106 107 110 107 108 102 97 90 89 89 90 93 94 89 84 83 81
345 223 216 244 255 215 244 276 185 205 195 173 266 51 352 345 335 133 139 129 119 120 122 116 113 113 114 109 107 110 104 103 107 96 92 89 95 94 95 90 86 86 85 84
299 272 273 270 246 229 222 234 238 209 227 140 334 327 269 302 249 107 101 114 113 123 111 109 113 117 113 115 112 107 102 100 99 92 90 89 84 88 83 83 87 87 80 69
237 229 247 277 129 159 235 216 192 162 193 129 189 202 38 13 103 102 100 105 108 109 110 111 113 113 115 113 112 105 105 101 95 95 93 93 97 91 87 91 95 91 80 77
247 204 242 282 156 184 280 164 169 155 138 114 111 107 73 61 62 70 98 99 99 100 102 106 110 107 107 106 101 102 98 96 96 93 94 96 92 84 80 81 80 76 78 72
227 214 258 246 262 132 45 106 154 149 83 98 122 130 113 92 77 44 67 92 95 94 94 96 101 101 101 97 103 99 93 91 88 90 91 88 86 85 82 77 74 65 74 66
325 232 248 270 73 84 359 26 6 95 112 148 154 146 128 131 111 94 86 99 96 93 92 101 101 100 90 94 102 92 87 86 84 84 85 78 78 81 81 82 73 61 62 64
340 354 10 346 27 98 13 337 311 135 219 158 164 149 135 134 125 118 108 96 100 97 95 97 90 89 91 95 92 87 89 85 92 90 82 77 74 76 75 73 63 66 66 64
338 337 351 330 18 18 340 319 73 109 95 131 130 98 108 118 116 105 101 103 102 103 100 94 90 86 83 85 93 91 86 90 86 82 80 75 68 75 71 75 64 59 60 63
12 18 307 24 357 297 313 44 64 96 107 108 110 119 121 122 105 96 95 102 101 101 98 101 97 89 80 82 89 97 92 90 87 83 78 74 71 67 61 69 66 65 56 57
331 9 332 261 19 358 12 46 76 87 88 91 98 106 110 111 109 98 84 109 99 96 98 99 96 94 91 86 84 84 88 88 90 87 80 79 83 78 71 69 63 68 60 60
331 314 319 329 357 330 25 37 78 88 86 81 76 82 90 100 96 104 116 101 93 94 94 97 98 97 94 91 88 87 89 95 89 86 84 81 81 80 78 67 69 70 63 68
335 327 347 344 342 16 45 53 73 86 90 79 82 79 69 76 84 84 111 92 94 94 96 92 93 97 96 94 91 88 90 95 95 89 89 87 85 77 73 80 73 59 77 66